Regional Weather Roundup
Issued by NWS

Home | Current Version | Previous Version | Text Only | Print | Product List | Glossary On
Versions: 1 2 3 4 5 6 7 8 9 10 11 12 13 14 15 16 17 18 19 20 21 22 23 24 25 26 27 28 29 30 31 32 33 34 35 36 37 38 39 40 41 42 43 44 45 46 47 48 49 50
255
ASUS42 KTBW 080216
RWRFL
FLORIDA REGIONAL WEATHER ROUNDUP
NATIONAL WEATHER SERVICE TAMPA BAY RUSKIN FL
900 PM EST SUN FEB 07 2016

NOTE: "FAIR" INDICATES FEW OR NO CLOUDS BELOW 12,000 FEET WITH NO
SIGNIFICANT WEATHER AND/OR OBSTRUCTIONS TO VISIBILITY.


FLZ001>010-012>015-112-114-115-080300-
PANHANDLE FLORIDA

CITY           SKY/WX    TMP DP  RH WIND       PRES   REMARKS
PENSACOLA      CLEAR     49  32  52 W8        30.12S
PENSACOLA NAS  CLEAR     49  33  54 W5        30.13R
MILTON NAS     CLEAR     45  29  53 W9        30.12  WCI  40
CRESTVIEW      CLEAR     40  32  73 W3        30.11S
DUKE FIELD     FAIR      47  26  44 W3        30.09S
VALPARAISO     CLEAR     46  35  63 W5        30.10R WCI  44
MARY ESTHER    CLEAR     51  30  45 W10       30.10S
TRI COUNTY     FAIR      43  36  76 CALM      30.09S
PANAMA CITY    FAIR      45  34  65 SW7       30.09R WCI  41
TYNDALL AFB    CLEAR     53  36  52 NW9       30.10R
APALACHICOLA   CLEAR     46  34  62 W6        30.10R WCI  43

STATION/POSITION SKY/WX   TEMP    WIND        PRES    WAVE   SWELL
                          AIR SEA DIR/SP/G            HT/PER HT/PER
                          (F)     (DEG/KT/KT) (MB)    (FT/S) (FT/S)
30.1N   87.6W              56 61  260/ 16/ 19 1020.0R   2/ 3
28.8N   86.0W              58 69  300/ 14/ 17 1020.3R   3/ 5
PANAMA CITY BEAC           58 61              1019.1R
CAPE SAN BLAS    NOT AVBL
TOWER C          NOT AVBL
28.5N   84.5W              59 68  290/ 14/ 17 1019.0F   3/ 6   2/14

$$
FLZ011-016>038-118-127-128-134-139-239-080300-
NORTH FLORIDA

CITY           SKY/WX    TMP DP  RH WIND       PRES   REMARKS
MARIANNA       CLEAR     46  31  55 W3        30.07S
TALLAHASSEE    CLEAR     41  31  67 CALM      30.07R
PERRY          CLEAR     43  32  65 CALM      30.08R
LIVE OAK         N/A     39  36  87 CALM      30.08R
CROSS CITY       N/A     39  32  76 CALM      30.07R
LAKE CITY      FAIR      41  34  75 CALM      30.05R
GAINESVILLE    CLEAR     39  31  72 W7        30.06R WCI  34
WILLISTON      FAIR      45  32  61 W3        30.08R
KEYSTONE HEIGH FAIR      43  32  65 W3        30.05R
PALATKA        FAIR      39  36  87 W6        30.05R WCI  35
MAYPORT NAS    CLEAR     49  33  54 W5        30.02R
JACKSONVILLE   CLEAR     43  33  68 W5        30.03R WCI  40
JAX NAS        CLEAR     48  29  47 W7        30.03R WCI  45
JAX CRAIG      CLEAR     49  29  46 W6        30.02R
JAX CECIL      CLEAR     41  32  70 VRB5      30.03R WCI  38
FERNANDINA BEA FAIR      46  32  57 W6        30.00R WCI  43
ST AUGUSTINE   CLEAR     43  35  73 W7        30.04R WCI  39
PALM COAST     FAIR      45  34  66 CALM      30.03S

STATION/POSITION SKY/WX   TEMP    WIND        PRES    WAVE   SWELL
                          AIR SEA DIR/SP/G            HT/PER HT/PER
                          (F)     (DEG/KT/KT) (MB)    (FT/S) (FT/S)
SHELL POINT                51     290/  4/  5 1016.8
KEATON BEACH               50     330/  3/  4 1018.6R
CEDAR KEY                  53     300/  6/  7 1019.0R
FERNANDINA                 50 55              1015.2R
30.7N   81.3W                 56                N/A     4/13   2/13
MAYPORT                    51 56              1015.4R
31.4N   80.9W              54 56  300/ 14/ 17 1014.5R   4/11   3/11
ST AUGUSTINE               46 57  250/  5/  6 1017.6R

$$
FLZ040-043>046-052-053-057-058-063-144-080300-
INTERIOR CENTRAL FLORIDA

CITY           SKY/WX    TMP DP  RH WIND       PRES   REMARKS
OCALA          CLEAR     45  27  49 W5        30.07R WCI  42
THE VILLAGES     N/A     45  32  61 CALM      29.97R
LEESBURG       CLEAR     49  36  61 W7        30.07R
SANFORD        CLEAR     47  33  58 W7        30.05R WCI  44
ORLANDO EXEC   CLEAR     51  32  48 W8        30.06R
ORLANDO INTL   CLEAR     50  33  52 W9        30.07R
KISSIMMEE      CLEAR     48  37  66 W9        30.08R WCI  44
WINTER HAVEN   CLEAR     48  34  58 W8        30.09R WCI  44
LAKELAND       CLEAR     45  36  70 W3        30.09R
BARTOW         FAIR      48  32  53 W7        30.09S
OKEECHOBEE     CLEAR     48  36  61 W12       30.07S WCI  43

$$
FLZ041-047-054-059-064-141-147-080300-
EAST CENTRAL FLORIDA

CITY           SKY/WX    TMP DP  RH WIND       PRES   REMARKS
DAYTONA BEACH  CLEAR     44  36  73 SW5       30.04R WCI  42
DELAND           N/A     46  32  57 W6        30.05S WCI  43
NEW SMYRNA BEA CLEAR     46  37  71 W12       30.01S WCI  41
JFK SPACE CTR  CLEAR     48  38  68 W8        30.03R WCI  44
TITUSVILLE     CLEAR     45  36  70 NW6       30.05R WCI  41
CAPE CANAVERAL CLEAR     51  38  61 W8        30.03R
PATRICK AFB    CLEAR     52  37  54 W12       30.05R
MELBOURNE      CLEAR     47  35  63 W6        30.05R WCI  44
VERO BEACH     CLEAR     47  35  63 W8        30.06R WCI  43
FT PIERCE      CLEAR     46  37  71 W6        30.05S WCI  43
STUART         CLEAR     52  39  62 W7        30.06S

STATION/POSITION SKY/WX   TEMP    WIND        PRES    WAVE   SWELL
                          AIR SEA DIR/SP/G            HT/PER HT/PER
                          (F)     (DEG/KT/KT) (MB)    (FT/S) (FT/S)
28.5N   80.2W              57 72  290/ 17/ 21 1016.2R
28.9N   78.5W              63 74              1012.3R
TRIDENT PIER               54 65              1016.7R
28.4N   80.5W                 65                N/A     4/11   2/11
27.5N   80.2W                 72                N/A     5/10   2/12

$$
FLZ050-056-061-142-242-148-248-149-249-151-251-155-255-
160-260-080300-
WEST CENTRAL FLORIDA

CITY           SKY/WX    TMP DP  RH WIND       PRES   REMARKS
CRYSTAL RIVER  FAIR      50  36  57 W3        30.08R
INVERNESS      FAIR      41  37  87 CALM      30.08S
BROOKSVILLE    CLEAR     42  34  73 S3        30.09S
ZEPHYRHILLS    FAIR      44  34  69 W6        30.09S WCI  40
CLEARWATER AIR FAIR      52  34  50 NW8       30.09S
ST PETE CLEARW CLEAR     50  35  56 NW8       30.10R
TAMPA INTL     CLEAR     50  35  56 NW6       30.10R
TAMPA EXEC     CLEAR     46  37  71 CALM      30.10S
PLANT CITY     CLEAR     46  37  71 W3        30.10F
MACDILL AFB    CLEAR     51  38  62 NW9       30.09R
PETER O KNIGHT CLEAR     52  37  58 CALM      30.10S
ST PETERSBURG  CLEAR     52  36  54 NW7       30.08S
SARASOTA       CLEAR     50  38  63 N6        30.08S
VENICE         FAIR      55  39  54 NW14      30.10R

STATION/POSITION SKY/WX   TEMP    WIND        PRES    WAVE   SWELL
                          AIR SEA DIR/SP/G            HT/PER HT/PER
                          (F)     (DEG/KT/KT) (MB)    (FT/S) (FT/S)
CEDAR KEY                  53     300/  6/  7 1019.0R
28.5N   84.5W              59 68  290/ 14/ 17 1019.0F   3/ 6   2/14
27.3N   84.2W                 71                N/A     5/ 7
CLEARWATER BEACH           54 56              1019.0R
MIDDLE TAMPA BAY           54                 1019.1R
VENICE                     56 62  320/ 19/ 22 1018.5R

$$
FLZ066-069-070-075>078-162-262-165-265-080300-
SOUTHWEST FLORIDA AND KEYS

CITY           SKY/WX    TMP DP  RH WIND       PRES   REMARKS
PUNTA GORDA    CLEAR     49  41  74 N9        30.10S WCI  45
FT MYERS       CLEAR     52  41  66 N8        30.07S
SOUTHWEST INTL CLEAR     53  40  61 N7        30.08S
NAPLES         CLEAR     57  42  57 NW10G21   30.08S
MARCO ISLAND   CLEAR     55  39  54 NW9       30.07S
MARATHON       CLEAR     59  46  62 NW15G23   30.09R
KEY WEST NAS   PTCLDY    60  47  61 NW15      30.10R
KEY WEST INTL  CLEAR     61  49  64 NW13G22   30.10R

STATION/POSITION SKY/WX   TEMP    WIND        PRES    WAVE   SWELL
                          AIR SEA DIR/SP/G            HT/PER HT/PER
                          (F)     (DEG/KT/KT) (MB)    (FT/S) (FT/S)
VENICE                     56 62  320/ 19/ 22 1018.5R
NAPLES                        63              1018.1R
26.0N   85.6W              62 79  340/ 12/ 16 1021.0S   4/ 7   3/ 7
DRY TORTUGAS     NOT AVBL
SAND KEY                   62     340/ 17/ 21 1019.5R
LONG KEY                   60 66  340/ 21/ 24 1019.3R
MOLASSES REEF              59 75  310/ 23/ 27 1018.1R

$$
FLZ067-068-071>074-168-172>174-080300-
SOUTHEAST FLORIDA

CITY           SKY/WX    TMP DP  RH WIND       PRES   REMARKS
W PALM BEACH   CLEAR     53  37  54 W10       30.05S
FT LAUDER-EXEC CLEAR     55  40  56 W10       30.06R
FT LAUDERDALE  CLEAR     56  41  57 W12       30.06R
POMPANO BEACH  CLEAR     55  42  61 W15       30.05R
PEMBROKE PINES CLEAR     55  40  56 W12       30.08R
OPA LOCKA      CLEAR     56  41  57 NW16      30.07R
MIAMI          CLEAR     55  40  56 W7G18     30.07R
WEST KENDALL   CLEAR     52  43  71 NW10      30.08R
HOMESTEAD      CLEAR     53  42  65 W8        30.07R

STATION/POSITION SKY/WX   TEMP    WIND        PRES    WAVE   SWELL
                          AIR SEA DIR/SP/G            HT/PER HT/PER
                          (F)     (DEG/KT/KT) (MB)    (FT/S) (FT/S)
PORT EVERC1F1M1C2F2M2C3F3C4F4M3C5F5M4C6F6M5C7F7M6C8!



USA.gov is the U.S. government's official web portal to all federal, state and local government web resources and services.